Location: ?ern� Novina
(50.6762°N, 14.8696°E)
Time: 12:51:33
(UTC+00:00)

Cosmos 968 Rocket - Pass Details

Date: 03 March 2021
Orbit: 740 x 771 km, 74.0° (Epoch: 16 April)

Event Time Altitude Azimuth Distance (km) Brightness Sun altitude
Rises 17:47:46 0° 332° (NNW) 3,250 7.2 -10.7°
Reaches altitude 10° 17:50:11 10° 328° (NNW) 2,322 6.5 -11.0°
Maximum altitude 17:55:18 53° 253° (WSW) 947 4.4 -11.8°
Drops below altitude 10° 18:00:24 10° 177° (S) 2,310 5.9 -12.6°
Sets 18:02:48 0° 173° (S) 3,232 6.6 -13.0°
